Lapse_Rate
7.2 6.5 6.5 6.5 6.5 6.5 6.5 6.5 6.5 6.5 6.5 6.5 6.5 6.5 6.5 7.1 7.3 7.2 7.6 7.7 8.0 8.2 8.7 9.0 9.1 9.2 9.3 9.4 8.3 5.7 5.0 4.1 4.9 9.2 8.8 5.8 4.4 3.8 7.8 3.5 5.9 6.1 7.9 6.1
6.5 6.5 6.5 6.5 6.5 6.5 6.5 6.5 6.5 6.5 6.5 6.5 6.5 6.5 6.5 6.7 6.9 7.3 7.5 7.7 8.0 8.3 8.5 8.7 8.8 9.0 9.1 9.1 8.7 5.1 4.8 4.0 4.8 7.4 6.4 8.1 6.5 8.4 5.5 7.0 6.9 6.9 7.5 8.8
6.5 6.5 6.6 6.5 6.5 6.5 6.5 6.5 6.5 6.5 6.5 6.5 6.5 6.5 6.5 6.6 7.1 7.4 7.7 7.9 8.2 8.1 8.2 8.4 8.5 8.7 9.1 9.0 7.0 6.3 4.5 5.4 5.3 5.3 6.0 5.6 6.9 8.0 8.9 8.7 7.7 7.3 7.4 7.3
6.5 6.7 6.5 6.5 6.5 6.5 6.5 6.5 6.5 6.5 6.5 6.5 6.5 6.5 6.5 6.5 6.5 6.6 7.2 7.7 8.0 8.2 8.3 8.5 8.5 8.6 8.8 9.0 8.9 8.3 5.6 5.8 5.4 5.0 5.8 6.0 8.2 8.8 8.4 8.3 7.3 6.9 6.5 7.3
6.5 6.5 6.5 6.5 6.5 6.5 6.5 6.5 6.5 6.5 6.5 6.5 6.5 6.5 6.5 6.5 6.5 6.5 6.9 7.4 7.9 8.2 8.5 8.5 8.7 8.7 8.9 9.0 7.2 6.8 5.7 6.2 5.7 5.2 6.3 7.1 8.4 8.9 8.7 9.3 7.4 7.0 7.0 7.1
6.5 7.2 6.6 6.5 6.5 6.5 6.5 6.5 6.5 6.5 6.5 6.5 6.5 6.5 6.5 6.5 6.5 6.5 6.9 7.4 7.7 8.1 8.4 8.5 8.8 8.8 8.6 7.2 6.9 7.6 5.3 6.2 6.1 6.0 6.2 6.6 7.7 8.0 8.5 8.1 9.2 9.4 9.6 9.6
6.5 6.5 6.6 6.9 6.5 6.5 6.5 6.5 6.5 6.5 6.5 6.5 6.5 6.5 6.5 6.5 6.5 6.6 6.7 7.3 7.9 8.2 8.4 8.5 8.5 8.5 8.4 7.3 8.8 8.7 6.9 6.2 6.4 6.7 6.9 7.3 7.5 7.3 7.6 7.9 9.2 9.2 9.4 9.5
6.5 6.5 6.5 6.5 6.5 6.5 6.5 6.5 6.5 6.5 6.5 6.5 6.5 6.5 6.5 6.5 7.0 7.3 7.4 7.7 8.0 8.2 8.4 8.5 8.7 8.7 8.7 8.8 9.0 9.1 7.8 6.7 6.7 7.1 7.2 6.8 7.3 9.2 8.9 8.6 9.4 9.4 9.5 9.5
6.5 6.5 6.5 6.5 6.5 6.5 6.5 6.5 6.5 6.5 6.5 6.5 6.5 6.5 6.5 6.5 6.5 6.9 7.2 7.5 7.7 7.9 8.3 8.4 8.8 8.8 8.8 8.9 9.0 9.1 8.5 8.0 8.2 8.5 6.9 6.8 6.9 8.2 8.3 8.1 8.9 9.5 9.2 9.1
6.5 6.5 6.5 6.5 6.7 6.6 6.5 6.5 6.5 6.5 6.5 6.5 6.5 6.5 6.5 6.5 6.5 6.5 6.7 7.2 7.6 8.0 8.2 8.5 8.7 8.8 9.0 9.1 9.2 9.3 8.9 8.7 8.5 9.0 6.8 6.5 6.5 6.9 6.6 8.7 8.9 9.0 7.8 6.7
6.5 6.5 6.5 6.5 6.5 6.5 6.5 6.5 6.5 6.5 6.5 6.5 6.5 6.5 6.5 6.5 6.5 6.5 6.9 7.4 7.7 7.9 8.2 8.5 8.8 8.9 9.1 9.3 9.3 9.2 8.7 8.2 6.7 5.2 3.8 4.6 5.2 7.1 6.7 9.0 9.2 8.8 7.0 6.2
6.5 6.5 6.5 6.5 6.5 6.5 6.5 6.5 6.5 6.5 6.5 6.5 6.5 6.5 6.5 6.5 6.7 7.0 7.2 7.6 7.9 8.1 8.4 8.5 8.7 8.8 9.0 9.1 9.2 8.0 5.5 5.0 4.7 5.4 4.8 4.4 8.1 8.2 7.6 9.0 8.7 7.3 6.7 6.1
6.5 6.5 6.5 6.5 6.5 6.5 6.5 6.5 6.5 6.5 6.5 6.5 6.5 6.5 6.5 6.8 6.8 7.2 7.2 7.6 7.8 8.0 8.2 8.5 8.6 8.6 8.8 8.8 8.8 6.8 6.0 5.9 6.0 6.2 6.3 7.7 9.2 9.3 8.9 9.3 9.3 9.0 6.8 6.2
6.4 6.5 6.5 6.5 6.5 6.5 6.5 6.5 6.5 6.5 6.5 6.5 6.5 6.5 6.5 6.5 6.5 7.0 7.4 7.6 7.8 7.9 8.1 8.3 8.4 8.5 8.7 8.6 8.7 8.3 7.7 7.4 6.5 6.3 7.6 8.7 9.2 9.2 9.2 8.5 8.7 8.6 8.5 7.9
6.5 6.5 6.5 6.5 6.5 6.5 6.5 6.5 6.5 6.5 6.5 6.5 6.5 6.5 6.5 6.5 6.5 7.0 7.5 7.6 7.7 7.7 8.0 8.2 8.3 8.5 8.6 7.7 8.8 8.9 9.0 9.2 8.2 8.4 8.6 8.8 9.3 9.3 9.2 9.0 9.2 9.1 8.5 7.2
6.5 6.5 6.5 6.5 6.5 6.5 6.5 6.5 6.5 6.5 6.5 6.5 6.5 6.5 6.5 7.1 7.4 7.3 7.4 7.5 7.5 7.7 8.0 8.2 8.4 8.5 8.5 8.5 8.6 8.8 8.9 8.8 9.3 9.1 8.6 8.3 8.6 8.9 8.5 8.5 9.1 7.4 6.9 6.8
6.5 6.5 6.5 6.5 6.5 6.5 6.5 6.5 6.5 6.5 6.5 6.5 6.5 6.5 6.6 6.5 6.8 7.2 7.4 7.6 7.6 7.8 8.0 8.2 8.4 8.5 8.6 8.7 8.8 8.3 7.4 8.7 9.0 9.1 8.5 7.1 7.0 8.2 8.1 8.9 8.8 7.7 6.8 6.5
6.5 6.5 6.5 6.5 6.5 6.5 6.5 6.5 6.5 6.5 6.5 6.5 6.5 6.5 6.6 6.9 7.5 7.7 7.9 7.8 7.9 8.0 8.1 8.4 8.6 8.7 8.8 9.0 7.8 8.7 9.1 7.3 8.8 9.0 7.0 6.0 5.8 4.6 5.4 7.3 8.5 7.3 6.3 6.8
6.6 6.5 6.5 6.5 6.5 6.5 6.5 6.5 6.5 6.5 6.5 6.5 6.5 6.5 7.1 7.5 7.7 7.5 8.1 8.2 8.0 8.1 7.4 5.1 7.3 8.7 8.9 8.9 7.9 7.2 8.5 8.3 8.9 8.7 5.5 5.0 5.5 4.8 5.1 6.4 6.2 5.9 5.0 6.2
6.5 6.5 6.5 6.5 6.5 6.5 6.5 6.5 7.2 6.7 6.5 6.8 6.9 6.8 7.0 7.4 6.5 6.5 8.1 7.0 5.1 3.8 3.7 3.5 6.4 8.8 8.8 8.4 6.8 6.2 8.3 8.8 8.9 8.4 6.2 5.3 5.2 5.9 6.5 6.3 6.0 4.9 5.2 7.2
6.5 6.5 6.5 6.5 6.5 6.5 6.5 6.8 7.3 6.5 6.5 7.1 7.3 7.3 7.3 6.6 7.4 7.8 8.3 6.5 5.1 3.5 3.1 4.6 5.1 7.7 8.5 5.9 6.1 6.5 7.8 8.6 8.0 6.7 7.0 6.0 5.9 5.9 6.8 4.6 3.6 4.7 5.8 7.2
6.5 6.5 6.5 6.5 6.5 6.5 7.1 6.8 6.5 6.7 7.3 7.5 7.5 7.6 7.5 7.8 8.0 8.1 8.3 8.3 8.4 7.0 4.0 4.1 3.7 2.9 3.1 5.0 5.6 6.4 7.2 3.8 4.0 3.4 4.2 5.4 5.9 6.7 7.5 6.0 4.2 3.5 4.5 6.0
6.5 6.5 6.5 6.5 6.5 6.9 7.5 7.2 7.8 7.9 7.5 7.6 7.7 8.0 8.0 8.0 8.0 8.1 8.1 8.3 8.5 8.5 6.8 5.7 5.1 3.3 2.3 2.5 5.2 3.5 2.9 3.7 4.6 5.8 6.6 6.8 7.0 6.1 6.1 5.5 5.6 4.6 3.5 5.5
6.5 7.0 6.5 6.5 6.6 6.8 7.4 7.8 8.0 8.0 7.8 8.1 8.2 8.2 8.2 8.0 8.1 8.2 8.2 8.4 8.5 8.5 8.4 8.7 8.7 5.7 3.3 3.2 4.0 4.6 4.8 4.6 5.1 5.1 4.9 5.0 4.7 3.7 3.0 4.4 4.0 3.6 2.8 3.5
6.8 6.7 6.5 6.5 6.7 7.1 7.4 7.8 7.9 8.0 8.2 8.1 8.3 8.3 8.2 8.3 8.2 8.3 8.3 8.3 8.4 8.5 8.6 8.7 8.1 7.1 5.2 4.9 5.1 4.2 4.0 4.7 5.3 5.5 5.2 4.3 3.1 2.0 0.4 -1.5 -0.6 2.1 2.2 2.4
7.0 6.5 6.5 6.5 7.0 7.1 7.2 7.9 8.2 8.0 8.0 8.3 8.2 8.2 8.5 8.5 8.4 8.5 8.4 8.5 8.5 8.5 8.5 8.6 8.6 7.3 6.6 6.3 6.6 6.2 5.8 5.6 5.6 5.7 6.7 7.4 4.9 2.2 1.3 0.5 -0.8 -3.4 -3.0 -2.5
Wind_Speed
3 10 13 15 12 6 1 6 6 1 1 7 8 9 9 9 10 10 14 15 15 16 13 13 12 12 11 11 11 10 10 7 4 5 3 5 3 3 7 6 9 9 2 6
7 13 3 2 4 8 10 11 8 3 2 6 1 7 3 4 6 8 12 15 17 16 14 13 12 12 11 11 11 11 10 9 7 4 1 2 4 5 2 7 4 4 3 6
13 3 7 8 9 11 13 13 6 6 2 3 3 9 8 6 6 5 8 14 17 17 15 13 13 12 11 11 12 11 11 9 6 4 3 4 4 4 6 4 4 3 3 3
9 8 8 9 11 13 14 10 5 6 8 6 2 6 9 3 6 3 4 11 14 16 13 13 12 12 11 10 9 10 10 9 7 6 4 5 5 5 2 3 3 3 4 2
5 13 11 10 11 13 1 6 7 6 7 6 9 6 3 5 6 1 4 4 10 13 15 14 12 11 10 10 10 10 10 8 7 5 4 6 6 4 4 3 3 2 1 4
3 1 5 5 3 9 9 8 7 5 7 10 2 4 10 3 2 2 6 7 7 10 11 10 11 11 11 11 11 11 11 9 8 6 6 4 4 3 3 1 1 0 1 2
12 12 8 7 8 7 13 12 8 8 9 6 5 5 8 4 2 6 6 3 8 8 9 11 13 12 12 12 12 11 10 10 9 9 7 4 5 4 2 2 2 2 2 1
10 12 15 12 13 11 16 13 9 5 7 4 5 6 3 1 3 2 2 5 9 8 9 11 12 12 12 12 12 11 11 12 11 11 8 5 6 4 4 2 0 1 1 2
9 10 7 5 5 9 9 11 5 4 1 8 5 4 5 2 3 4 7 10 9 7 7 9 11 11 11 11 11 11 11 12 11 11 8 9 8 4 5 3 3 2 0 4
3 7 9 9 7 3 6 9 7 7 6 8 6 4 2 5 6 7 8 10 8 6 7 9 10 11 11 11 10 10 10 11 10 10 7 7 7 7 6 4 2 2 3 5
10 7 10 7 12 13 7 9 9 5 4 4 5 7 6 1 4 8 8 7 7 5 6 8 9 10 10 11 10 11 10 9 8 8 5 4 1 7 6 4 3 3 4 6
14 9 9 15 7 3 6 12 15 9 10 8 7 2 5 3 6 6 8 7 5 4 7 8 10 11 10 11 10 12 11 10 9 10 7 8 11 8 7 5 5 4 5 7
11 8 9 12 8 5 9 11 11 9 5 7 10 4 6 6 5 4 7 6 4 3 6 9 10 11 11 11 10 12 11 11 12 12 13 12 10 9 8 7 5 5 6 8
6 13 13 10 13 11 10 11 13 16 9 9 12 3 9 4 4 8 7 6 4 3 5 7 8 10 11 10 10 11 11 12 14 10 9 10 10 10 9 8 6 6 6 7
8 12 16 16 6 6 10 10 14 14 11 8 9 10 8 5 3 8 8 6 5 3 4 6 9 11 11 11 10 9 11 12 11 10 10 10 9 9 8 8 8 7 6 7
8 10 12 18 15 14 10 9 9 9 6 3 3 6 5 5 7 9 8 7 4 3 3 5 8 11 12 11 10 10 11 13 12 12 10 9 9 9 9 9 8 8 8 7
8 9 9 15 11 14 15 15 13 11 9 8 8 6 5 5 7 8 8 5 3 2 2 4 7 9 10 10 10 12 11 13 10 9 10 10 10 10 9 9 9 9 8 7
8 11 7 9 8 14 4 1 11 12 9 6 6 5 3 7 7 6 3 4 4 3 2 3 5 8 9 9 9 10 11 13 12 9 10 11 10 7 6 7 7 5 6 7
7 11 5 7 13 4 8 6 7 12 9 3 3 7 8 9 11 7 4 4 3 3 2 2 4 3 9 9 10 10 11 13 12 10 10 11 10 9 7 8 10 7 7 6
5 7 9 7 11 11 10 7 3 4 8 5 6 9 12 12 9 5 5 2 2 2 4 4 3 7 9 8 8 8 9 10 11 10 9 9 10 10 9 7 10 9 7 7
8 6 9 9 7 7 5 2 3 10 5 4 4 8 12 9 5 11 8 5 3 4 5 4 4 5 6 8 9 9 8 9 3 5 8 9 10 10 9 9 6 6 8 8
5 5 5 1 4 6 6 4 4 5 3 5 3 6 7 10 9 8 7 6 6 7 8 6 6 6 4 4 6 8 7 6 6 7 6 6 7 7 9 12 10 8 8 8
3 5 2 6 5 4 4 5 4 3 2 4 3 6 8 9 8 6 5 4 4 4 6 5 6 7 7 5 2 7 7 7 7 7 7 7 6 6 8 8 10 7 9 7
3 1 1 2 5 3 3 3 4 2 4 2 5 5 6 6 5 4 3 2 3 4 5 4 5 6 7 6 5 4 6 6 7 6 5 4 5 3 3 5 5 6 7 7
6 2 1 2 3 1 3 4 4 5 2 4 4 5 4 4 4 3 4 3 3 4 4 4 5 4 5 5 4 4 4 4 5 5 4 4 2 1 2 5 3 3 3 5
1 4 5 4 5 4 4 3 2 3 5 6 8 7 5 4 4 3 4 3 3 3 3 3 4 4 3 4 3 3 3 4 5 6 5 3 4 3 3 4 6 16 10 11
Wind_Direction
171 238 219 218 232 312 19 262 271 283 59 287 248 244 245 185 208 198 192 194 198 201 189 188 186 198 201 195 204 204 197 190 235 244 212 140 190 231 214 235 263 238 212 125
224 226 196 1 184 216 230 251 236 169 9 248 196 220 164 208 212 222 194 201 208 201 186 186 191 189 199 195 200 194 197 189 220 243 251 113 197 216 237 224 229 259 221 159
245 130 150 199 188 217 237 249 198 273 172 199 252 216 194 159 211 211 229 213 211 207 187 187 190 193 190 194 199 188 190 192 205 229 178 122 159 237 211 186 178 160 104 74
237 157 204 201 219 223 224 211 222 226 249 241 253 291 179 196 221 215 269 219 217 205 186 185 188 184 191 186 182 175 183 176 179 189 174 175 199 193 202 185 124 106 47 26
163 197 197 216 222 207 155 160 210 217 243 280 203 260 213 170 204 75 38 151 192 190 194 189 184 175 178 158 168 162 163 168 165 172 202 188 195 169 186 180 146 42 47 14
257 269 223 226 118 221 143 153 165 200 254 244 235 271 269 179 27 286 69 105 163 180 180 180 161 159 165 158 156 162 160 167 170 174 178 206 209 204 162 204 182 238 251 101
204 208 191 218 170 180 208 194 226 222 213 253 100 239 292 97 299 318 352 78 146 157 167 162 161 168 168 158 156 157 165 163 162 171 165 176 153 143 126 230 283 264 180 117
209 196 206 192 234 192 209 228 262 246 258 234 134 237 163 46 342 19 45 135 117 140 150 165 166 169 167 159 160 161 165 162 161 165 169 157 158 164 152 248 314 272 84 60
209 226 173 203 193 224 174 221 314 273 196 271 198 193 227 163 168 109 78 95 99 132 139 148 157 165 154 153 157 156 161 165 164 166 170 165 162 172 111 130 204 142 33 111
166 236 194 155 171 130 266 177 195 219 250 257 155 252 256 193 165 114 95 101 112 118 135 151 163 157 148 146 147 137 152 164 173 177 180 161 149 139 130 142 113 98 91 82
228 259 154 182 207 201 181 205 240 305 315 299 231 202 111 325 77 111 105 102 103 120 152 162 162 155 152 147 144 135 139 152 144 133 82 53 83 138 116 124 118 101 90 94
208 222 245 212 111 340 297 248 218 232 189 238 303 323 105 89 114 111 108 103 95 129 153 167 173 167 159 154 142 123 138 142 142 124 158 162 186 136 131 135 124 114 109 95
187 225 216 227 204 197 234 210 240 241 271 197 243 182 117 113 129 121 123 120 122 132 160 166 171 176 169 152 142 149 145 138 147 158 165 179 144 136 138 139 124 112 94 87
245 231 234 245 222 202 198 209 211 214 206 188 224 127 166 105 161 142 135 130 149 162 163 165 176 176 169 141 155 154 144 139 144 164 175 153 148 142 146 139 129 122 113 104
223 226 224 244 264 241 232 202 194 219 235 227 222 201 78 69 67 130 150 147 178 174 164 174 179 177 173 154 165 158 143 148 158 166 179 163 149 147 146 147 139 138 127 117
210 231 223 231 228 243 238 211 196 217 218 254 218 139 63 92 119 135 146 163 167 162 127 169 179 181 177 168 163 151 147 152 160 172 169 163 163 161 155 157 154 146 141 133
199 211 211 220 204 225 232 227 209 206 197 221 217 80 122 125 134 139 140 132 118 106 138 165 188 179 177 172 168 158 160 161 162 173 161 165 172 173 170 174 168 156 148 140
205 203 217 224 183 219 190 221 226 221 213 171 107 56 50 132 119 113 95 125 102 46 17 136 186 179 174 162 167 161 167 172 175 181 174 178 184 181 173 173 175 133 139 148
232 205 185 203 211 135 152 158 177 196 170 174 153 89 133 138 135 122 111 54 15 345 335 283 275 230 160 166 164 162 169 175 186 182 186 192 194 187 177 170 173 158 153 164
170 237 234 199 221 214 97 131 159 195 157 46 93 153 169 184 219 126 137 114 87 34 2 341 258 171 157 156 161 163 174 179 192 182 194 190 191 191 193 176 177 175 180 174
191 216 218 190 216 96 73 96 208 206 87 65 138 161 178 201 25 119 141 141 114 93 59 33 65 112 144 161 168 176 180 198 160 122 190 190 195 187 186 161 178 191 185 164
224 224 176 253 228 144 16 201 263 36 80 44 109 151 152 135 136 147 156 156 144 122 104 89 89 93 96 154 175 178 184 124 137 146 173 185 190 195 190 184 188 186 160 163
184 354 41 348 52 44 14 18 24 352 352 53 104 132 150 159 166 172 168 162 122 99 99 110 103 91 69 59 132 164 154 158 162 164 171 176 191 211 217 225 207 187 166 166
125 353 50 240 82 51 28 38 31 17 12 28 125 160 179 189 182 189 152 127 106 98 84 66 81 79 76 62 86 131 160 159 175 175 185 202 218 225 278 255 183 167 167 160
31 248 46 213 131 222 153 59 21 57 85 105 117 132 169 171 180 158 143 118 102 76 65 47 52 71 90 93 92 123 158 187 185 181 187 190 191 140 96 56 26 130 129 160
26 31 277 13 22 302 75 68 51 119 97 86 94 100 100 114 122 141 113 115 107 100 95 84 93 109 110 113 135 150 163 179 178 181 181 169 153 148 136 113 80 42 64 90